Location: Baia Mare
(47.6567°N, 23.5850°E)
Time: 14:54:37
(UTC+03:00)

ISS - Pass Details

Date: 17 July 2018
Orbit: 402 x 408 km, 51.6° (Epoch: 21 July)

Event Time Altitude Azimuth Distance (km) Brightness Sun altitude
Exits shadow 01:08:39 40° 66° (ENE) 619 -2.8 -20.9°
Drops below altitude 10° 01:10:52 10° 66° (ENE) 1,470 -0.8 -20.9°
Sets 01:12:58 0° 67° (ENE) 2,334 0.3 -21.0°
